Total_Precipitation_Accumulation
0.67 0.67 0.65 0.66 0.61 0.50 0.41 0.39 0.40 0.35 0.32 0.24 0.10 0.03 0.01 0.00 0.00 0.00 0.00 0.00 0.00 0.00 0.00 0.00 0.01 0.01 0.02 0.02 0.03 0.04 0.09 0.20 0.52 0.83 0.70 0.57 0.52 0.59
0.60 0.60 0.59 0.60 0.63 0.59 0.53 0.45 0.40 0.38 0.36 0.29 0.16 0.07 0.03 0.02 0.01 0.00 0.00 0.00 0.00 0.00 0.00 0.00 0.01 0.01 0.01 0.01 0.01 0.01 0.01 0.05 0.25 0.73 0.84 0.72 0.70 0.80
0.55 0.53 0.58 0.59 0.71 0.74 0.70 0.58 0.49 0.43 0.37 0.29 0.15 0.09 0.05 0.03 0.02 0.01 0.00 0.00 0.00 0.00 0.00 0.00 0.01 0.01 0.00 0.00 0.00 0.00 0.00 0.01 0.04 0.18 0.35 0.44 0.61 0.82
0.53 0.48 0.49 0.53 0.62 0.71 0.78 0.66 0.56 0.46 0.44 0.38 0.18 0.10 0.06 0.04 0.02 0.01 0.00 0.00 0.00 0.00 0.00 0.00 0.01 0.01 0.01 0.00 0.00 0.00 0.00 0.00 0.01 0.03 0.11 0.21 0.30 0.43
0.41 0.39 0.42 0.44 0.48 0.55 0.62 0.62 0.52 0.42 0.42 0.44 0.28 0.14 0.08 0.05 0.03 0.01 0.00 0.00 0.00 0.00 0.00 0.00 0.00 0.01 0.01 0.00 0.00 0.00 0.00 0.00 0.01 0.01 0.03 0.07 0.13 0.17
0.23 0.23 0.27 0.28 0.29 0.35 0.44 0.47 0.49 0.45 0.42 0.43 0.34 0.19 0.12 0.08 0.05 0.02 0.01 0.00 0.00 0.00 0.00 0.00 0.00 0.00 0.01 0.00 0.00 0.00 0.00 0.00 0.00 0.00 0.00 0.01 0.02 0.05
0.22 0.20 0.17 0.17 0.19 0.22 0.28 0.37 0.43 0.44 0.42 0.40 0.34 0.21 0.13 0.08 0.04 0.02 0.01 0.00 0.00 0.00 0.00 0.00 0.00 0.00 0.00 0.00 0.00 0.00 0.00 0.00 0.00 0.00 0.00 0.00 0.00 0.01
0.19 0.21 0.24 0.22 0.14 0.12 0.13 0.20 0.28 0.35 0.36 0.36 0.33 0.24 0.14 0.09 0.06 0.04 0.01 0.00 0.00 0.00 0.00 0.00 0.00 0.00 0.00 0.00 0.00 0.00 0.00 0.00 0.00 0.00 0.00 0.00 0.00 0.00
0.17 0.17 0.22 0.24 0.27 0.23 0.17 0.15 0.14 0.21 0.32 0.38 0.36 0.31 0.33 0.21 0.11 0.05 0.02 0.01 0.01 0.00 0.00 0.00 0.00 0.00 0.00 0.00 0.00 0.00 0.00 0.00 0.00 0.00 0.00 0.00 0.00 0.00
0.25 0.21 0.21 0.21 0.23 0.32 0.37 0.31 0.25 0.26 0.38 0.28 0.26 0.41 0.43 0.33 0.20 0.12 0.08 0.05 0.03 0.01 0.00 0.00 0.00 0.00 0.00 0.00 0.00 0.00 0.00 0.00 0.00 0.00 0.00 0.00 0.00 0.00
0.26 0.23 0.24 0.25 0.31 0.36 0.38 0.35 0.32 0.33 0.55 0.57 0.53 0.49 0.43 0.34 0.27 0.22 0.14 0.08 0.04 0.02 0.01 0.00 0.00 0.00 0.00 0.00 0.00 0.00 0.00 0.00 0.00 0.00 0.00 0.00 0.00 0.00
0.31 0.26 0.32 0.30 0.31 0.27 0.23 0.26 0.28 0.34 0.40 0.41 0.40 0.37 0.30 0.26 0.22 0.19 0.17 0.13 0.08 0.04 0.01 0.01 0.00 0.00 0.00 0.00 0.00 0.00 0.00 0.00 0.00 0.00 0.00 0.00 0.00 0.00
0.32 0.33 0.31 0.33 0.26 0.21 0.20 0.24 0.32 0.40 0.40 0.41 0.40 0.33 0.22 0.18 0.16 0.15 0.14 0.12 0.10 0.08 0.04 0.02 0.01 0.01 0.00 0.00 0.00 0.00 0.00 0.00 0.00 0.00 0.00 0.00 0.00 0.00
0.29 0.26 0.24 0.24 0.19 0.16 0.17 0.21 0.25 0.29 0.29 0.31 0.34 0.33 0.26 0.21 0.18 0.16 0.15 0.12 0.10 0.09 0.07 0.05 0.03 0.02 0.01 0.01 0.00 0.00 0.00 0.00 0.00 0.00 0.00 0.00 0.00 0.00
0.25 0.21 0.18 0.16 0.13 0.11 0.12 0.15 0.17 0.22 0.27 0.30 0.29 0.31 0.33 0.30 0.26 0.21 0.15 0.12 0.10 0.09 0.09 0.08 0.08 0.07 0.05 0.03 0.02 0.01 0.01 0.01 0.00 0.00 0.00 0.00 0.00 0.00
0.14 0.08 0.07 0.08 0.09 0.11 0.13 0.12 0.16 0.29 0.37 0.39 0.38 0.35 0.36 0.33 0.31 0.28 0.25 0.22 0.19 0.18 0.16 0.16 0.16 0.17 0.16 0.13 0.09 0.06 0.04 0.03 0.02 0.01 0.01 0.00 0.00 0.00
0.26 0.15 0.09 0.08 0.09 0.11 0.13 0.17 0.26 0.36 0.42 0.40 0.38 0.35 0.34 0.34 0.33 0.31 0.30 0.29 0.26 0.25 0.29 0.32 0.31 0.28 0.25 0.23 0.20 0.15 0.11 0.07 0.05 0.03 0.02 0.01 0.01 0.00
0.25 0.27 0.27 0.27 0.26 0.22 0.20 0.18 0.21 0.27 0.34 0.41 0.40 0.36 0.31 0.30 0.29 0.28 0.29 0.28 0.26 0.25 0.26 0.29 0.33 0.34 0.32 0.27 0.21 0.18 0.17 0.13 0.10 0.08 0.05 0.03 0.02 0.02
0.26 0.30 0.32 0.32 0.28 0.24 0.19 0.17 0.15 0.16 0.22 0.30 0.37 0.40 0.41 0.37 0.32 0.27 0.23 0.21 0.21 0.20 0.19 0.19 0.20 0.23 0.24 0.23 0.22 0.20 0.18 0.17 0.15 0.12 0.09 0.07 0.05 0.04
0.18 0.21 0.21 0.20 0.19 0.17 0.13 0.11 0.10 0.08 0.09 0.13 0.20 0.29 0.40 0.47 0.46 0.41 0.39 0.35 0.30 0.26 0.23 0.18 0.15 0.14 0.14 0.14 0.14 0.14 0.16 0.16 0.15 0.13 0.10 0.09 0.08 0.07
0.06 0.08 0.08 0.09 0.10 0.10 0.08 0.07 0.08 0.08 0.08 0.09 0.11 0.15 0.22 0.31 0.40 0.46 0.49 0.54 0.51 0.45 0.39 0.31 0.27 0.28 0.22 0.18 0.15 0.09 0.08 0.11 0.11 0.09 0.08 0.08 0.08 0.07
0.02 0.03 0.04 0.04 0.04 0.04 0.04 0.04 0.03 0.05 0.06 0.08 0.09 0.11 0.13 0.16 0.22 0.30 0.35 0.38 0.39 0.41 0.44 0.45 0.43 0.41 0.35 0.28 0.22 0.16 0.13 0.13 0.14 0.15 0.11 0.09 0.08 0.07
0.02 0.02 0.03 0.03 0.04 0.06 0.10 0.12 0.08 0.06 0.07 0.08 0.09 0.09 0.10 0.11 0.13 0.17 0.20 0.24 0.28 0.31 0.35 0.36 0.35 0.32 0.30 0.29 0.28 0.27 0.23 0.19 0.18 0.17 0.16 0.19 0.17 0.11